Torna al catalogo

COSMOS 970 DEB

AttivoLEO
NORAD 65013·DEBRIS·🇷🇺 Russia

Lanciato Dec 21, 1977 da Baikonur Cosmodrome

Loading…

Prossimi Passaggi (prossime 24 ore)

TLE

AggiornatoSource: Space-Track

Epoca: Sep 13, 2026, 19:44 UTC

1 65013U 77121EA  26256.82258538  .00000015  00000-0  12015-3 0  9993
2 65013  65.9211 303.6537 0104420 327.7611  31.7088 13.59148244145194

Traccia COSMOS 970 DEB in tempo reale con AllMySat

Download on the App Store